This is the latest recevied weather packets stored in our database for station/object WX5KDM. If no packets are shown the sender has not sent any weather packets the latest 10 day(s).
| Time | Temp. | Humidity | Pressure | Rain* | Wind** | Luminosity | Snow |
|---|---|---|---|---|---|---|---|
| 1777952889 | 16.67° C | 76% | 1012.6 hPa | 0 mm | - | - | - |
| 1777952585 | 16.67° C | 76% | 1012.6 hPa | 0 mm | - | - | - |
| 1777952282 | 16.11° C | 76% | 1012.4 hPa | 0 mm | - | - | - |
| 1777951979 | 16.67° C | 75% | 1012.8 hPa | 0 mm | - | - | - |
| 1777951677 | 16.67° C | 75% | 1012.7 hPa | 0 mm | - | - | - |
| 1777951373 | 16.67° C | 75% | 1012.8 hPa | 0 mm | - | - | - |
| 1777951070 | 16.67° C | 74% | 1012.7 hPa | 0 mm | - | - | - |
| 1777950766 | 16.67° C | 73% | 1012.6 hPa | 0 mm | - | - | - |
| 1777950464 | 17.22° C | 74% | 1012.7 hPa | 0 mm | - | - | - |
| 1777950160 | 17.22° C | 74% | 1012.6 hPa | 0 mm | - | - | - |
| 1777949856 | 17.22° C | 72% | 1012.6 hPa | 0 mm | - | - | - |
| 1777949554 | 17.78° C | 71% | 1012.6 hPa | 0 mm | - | - | - |
| 1777949252 | 17.78° C | 70% | 1012.5 hPa | 0 mm | - | - | - |
| 1777948949 | 18.33° C | 71% | 1012.6 hPa | 0 mm | - | - | - |
| 1777948646 | 17.78° C | 69% | 1012.5 hPa | 0 mm | - | - | - |
| 1777948343 | 17.78° C | 69% | 1012.4 hPa | 0 mm | - | - | - |
| 1777948041 | 18.33° C | 67% | 1012.4 hPa | 0 mm | - | - | - |
| 1777947737 | 18.33° C | 67% | 1012.4 hPa | 0 mm | - | - | - |
| 1777947434 | 18.33° C | 65% | 1012.1 hPa | 0 mm | - | - | - |
| 1777947131 | 18.89° C | 64% | 1012.3 hPa | 0 mm | - | - | - |
| 1777946827 | 19.44° C | 63% | 1012 hPa | 0 mm | - | - | - |
| 1777946522 | 19.44° C | 63% | 1012.1 hPa | 0 mm | - | - | - |
| 1777946220 | 19.44° C | 62% | 1012.1 hPa | 0 mm | - | - | - |
| 1777945917 | 20° C | 61% | 1012.1 hPa | 0 mm | - | - | - |
| 1777945614 | 20° C | 61% | 1012.1 hPa | 0 mm | - | - | - |
* Rain latest hour (hover to see other rain measurements)
** Current wind speed in m/s (hover to see current wind gust speed)